Regional Weather Roundup
Issued by NWS

Home | Current Version | Previous Version | Text Only | Print | Product List | Glossary On
Versions: 1 2 3 4 5 6 7 8 9 10 11 12 13 14 15 16 17 18 19 20 21 22 23 24 25 26 27 28 29 30 31 32 33 34 35 36 37 38 39 40 41 42 43 44 45 46 47 48 49 50
000
ASUS43 KMPX 280310
RWRMN
WEATHER ROUNDUP FOR MINNESOTA
NATIONAL WEATHER SERVICE TWIN CITIES/CHANHASSEN MN
900 PM CST SAT FEB 27 2021


NOTE: "FAIR" INDICATES FEW OR NO CLOUDS BELOW 12,000 FEET WITH NO
SIGNIFICANT WEATHER AND/OR OBSTRUCTIONS TO VISIBILITY. N/A MEANS
CURRENT SKY AND/OR WEATHER CONDITIONS ARE NOT AVAILABLE.

MNZ060>063-068>070-280400-
   Twin Cities Metro

CITY           SKY/WX    TMP DP  RH WIND       PRES   REMARKS
TWIN CITIES    CLOUDY    39  28  64 E3        29.94F
ST PAUL        CLOUDY    38  28  67 CALM      29.96R
CRYSTAL        CLOUDY    37  29  72 CALM      29.94R
BLAINE         CLOUDY    39  30  70 VRB3      29.95R
LAKEVILLE      MOCLDY    34  28  80 NE5       29.93F WCI  30
EDEN PRAIRIE   CLOUDY    37  28  70 N6        29.92F
SOUTH ST PAUL  MOCLDY    37  29  70 CALM      29.95S
LAKE ELMO      CLOUDY    34  30  86 MISG      29.97R
$$
MNZ001>005-007-008-013>017-022>024-027-028-280400-
   Northwest Minnesota

CITY           SKY/WX    TMP DP  RH WIND       PRES   REMARKS
BEMIDJI        CLOUDY    20  16  84 W6        30.02R WCI  12
HALLOCK        CLEAR     -2  -8  78 CALM      30.14R
ROSEAU         CLOUDY    12   0  57 W9        30.07R WCI   0
WARROAD        CLOUDY    12   9  85 NW6       30.05S WCI   3
THIEF RVR FALL CLOUDY     6   1  80 NW13      30.09R WCI -10
CROOKSTON      CLOUDY     3  -2  78 N14       30.13R WCI -15
FOSSTON        CLOUDY    12   9  85 NW7       30.06R WCI   2
DETROIT LAKES  CLOUDY    18  14  86 NW10      30.01S WCI   6
MOORHEAD       MOCLDY    14   5  67 N15       30.08F WCI  -1
PARK RAPIDS    MOCLDY    24  18  77 N9        29.98R WCI  14
MAHNOMEN       CLOUDY    17  13  86 N9        30.05R WCI   5
$$
MNZ006-009>011-018-025>026-280400-
   North Central Minnesota

CITY           SKY/WX    TMP DP  RH WIND       PRES   REMARKS
BAUDETTE       CLOUDY    13   7  77 N6        30.03R WCI   4
FLAG ISLAND    CLOUDY    10   3  72 N9        30.04F WCI  -2
INTL FALLS     CLOUDY    21  12  68 N3        30.00S
WASKISH        CLOUDY    18  10  73 N5        30.03R WCI  11
BIG FORK       CLOUDY    23  14  68 CALM      30.05R
LONGVILLE      MOCLDY    27  21  80 CALM      29.98R
GRAND RAPIDS   MOCLDY    26  21  81 NW6       29.99R WCI  19
CRANE LAKE       N/A     21  14  73 CALM      30.02S
ORR            CLOUDY    25  12  58 CALM      29.97R
COOK           CLOUDY    27  19  74 CALM      29.98R
WALKER         MOCLDY    23  16  74 N8        30.00R WCI  14
$$
MNZ012-019>021-037-280400-
   Northeast Minnesota

CITY           SKY/WX    TMP DP  RH WIND       PRES   REMARKS
DULUTH         MOCLDY    30  25  81 E6        29.96S WCI  24
ELY            MOCLDY    27  23  86 S3        29.96R
HIBBING        MOCLDY    24  19  81 N3        29.96R
EVELETH        MOCLDY    27  22  82 CALM      29.97S
DULUTH HARBOR  MIX PCPN  30  30 100 NE18      30.01R WCI  18
TWO HARBORS    CLOUDY    28  23  80 NE7       29.98S WCI  21
SILVER BAY     CLOUDY    27  25  93 NE10G17   30.00S WCI  17
GRAND MARAIS     N/A     25  17  72 NE12G18   30.05F WCI  14
G MARAIS ARPRT CLOUDY    19  14  79 E3        29.97S
$$
MNZ029>031-032-039>041-046>048-054>057-064-280400-
   West Central Minnesota

CITY           SKY/WX    TMP DP  RH WIND       PRES   REMARKS
FERGUS FALLS   CLOUDY    19  18  93 N8        29.98R WCI   9
WHEATON        CLOUDY    19  18  93 N14G21    30.03F WCI   6
MORRIS         CLOUDY    25  25 100 N12       29.98S WCI  14
ALEXANDRIA     CLOUDY    29  26  89 N9        29.95F WCI  20
ELBOW LAKE     CLOUDY    24  22  94 N10       29.99F WCI  13
WADENA         CLOUDY    25  21  86 NW6       29.98S WCI  18
GLENWOOD       CLOUDY    30  28  93 N8        29.95S WCI  23
APPLETON       CLOUDY    28  27  93 N7        29.99R FOG     WCI  21
BENSON         CLOUDY    28  27  93 N6        29.98R WCI  22
ORTONVILLE     CLOUDY    21  21 100 N10       29.99R WCI  10
MADISON        CLOUDY    28  27  93 NW12      30.00S WCI  18
WILLMAR        FAIR      34  30  86 CALM      29.98R
$$
MNZ033>034-036-042>043-049>051-058-059-280400-
   Central Minnesota

CITY           SKY/WX    TMP DP  RH WIND       PRES   REMARKS
ST CLOUD       CLOUDY    33  27  78 N3        29.95S
SAUK CENTRE    CLOUDY    30  28  91 N7        29.95F WCI  23
PAYNESVILLE    CLOUDY    32  32 100 N6        29.95S WCI  26
AITKIN         CLOUDY    27  25  93 CALM      29.98R
PINE RIVER     CLOUDY    28  23  80 N3        30.02R
BRAINERD       CLOUDY    30  25  81 CALM      29.97S
STAPLES        CLOUDY    28  27  93 N3        29.98S
LONG PRAIRIE   FAIR      30  28  93 N6        29.97S WCI  24
LITTLE FALLS   CLOUDY    32  27  80 CALM      29.98R
CAMP RIPLEY    CLOUDY    30  26  86 N5        29.98R WCI  25
LITCHFIELD     CLOUDY    37  30  75 NE3       29.95R
BUFFALO        CLOUDY    36  29  76 MISG      29.95S
HUTCHINSON     CLOUDY    36  32  85 NW5       29.96R
$$
MNZ037-044-045-052-053-280400-
   East Central Minnesota

CITY           SKY/WX    TMP DP  RH WIND       PRES   REMARKS
PRINCETON      CLOUDY    34  28  80 CALM      29.96S
MORA           CLOUDY    32  28  86 CALM      29.99R
CAMBRIDGE      CLOUDY    36  27  69 CALM      29.96S
RUSH CITY      CLOUDY    32  28  85 CALM      29.97R
MOOSE LAKE     CLOUDY    30  27  86 CALM      29.96R
HINCKLEY       CLOUDY    32  30  93 CALM      29.97R
CLOQUET        MOCLDY    30  25  80 E6        29.96R WCI  24
MCGREGOR       CLOUDY    28  27  93 CALM      29.98R
$$
MNZ071>073-080-081-089-090-097-098-280400-
   Southwest Minnesota

CITY           SKY/WX    TMP DP  RH WIND       PRES   REMARKS
MONTEVIDEO     CLOUDY    30  28  93 N7        29.98R FOG     WCI  23
GRANITE FALLS  CLOUDY    33  31  93 NW10      29.98R WCI  25
CANBY          CLOUDY    28  27  96 NW10      29.99R WCI  19
MARSHALL       CLOUDY    31  30  96 N14       29.95S WCI  21
REDWOOD FALLS  CLOUDY    36  32  85 N9        29.93R
OLIVIA         CLOUDY    34  32  93 N5        29.94R WCI  30
PIPESTONE        N/A     34  32  93 E9        29.87S WCI  26
WINDOM         MOCLDY    36  30  80 N9        29.90R
WORTHINGTON    LGT RAIN  34  32  92 N10       29.90R WCI  26
JACKSON        CLOUDY    36  30  80 E10       29.88R
TRACY          CLOUDY    32  29  90 N7        29.94R FOG     WCI  26
SLAYTON        CLOUDY    32  31  96 N12       29.91R FOG     WCI  23
$$
MNZ065>067-074>077-082>085-091>093-280400-
   South Central Minnesota

CITY           SKY/WX    TMP DP  RH WIND       PRES   REMARKS
MANKATO        CLOUDY    38  29  70 E8        29.91S
NEW ULM        CLOUDY    37  28  70 NE7       29.91R
ST JAMES       CLOUDY    34  30  86 CALM      29.91R
FAIRMONT       CLOUDY    36  30  79 E8        29.90R
GLENCOE        CLOUDY    37  30  77 N5        29.94R
FARIBAULT        N/A     37  30  75 NE5       29.93R
OWATONNA       MOCLDY    37  28  70 E8        29.91S
WASECA         CLOUDY    36  30  80 E10       29.91F
ALBERT LEA     MOCLDY    36  30  80 E6        29.91R
$$
MNZ078>079-086>088-094>096-280400-
   Southeast Minnesota

CITY           SKY/WX    TMP DP  RH WIND       PRES   REMARKS
ROCHESTER      MOCLDY    37  28  70 SE6       29.93S
RED WING       MOCLDY    36  28  75 CALM      29.95S
STANTON        CLOUDY    34  30  84 E6        29.93S WCI  29
DODGE CENTER   MOCLDY    36  28  75 E5        29.93R
WINONA         MOCLDY    32  30  93 CALM      29.96S
AUSTIN         CLOUDY    37  30  75 E9        29.90S
PRESTON        PTCLDY    38  29  70 SE6       29.93R
$$
ABBREVIATIONS USED IN REMARKS
   TC - TEMPERATURES IN CELSIUS
  WCI - WIND CHILL INDEX
   HX - HEAT INDEX
  VSB - VISIBILITY
$$




USA.gov is the U.S. government's official web portal to all federal, state and local government web resources and services.